Flag for Italy Weather past 2 weeks in Ancona, Italy

45 °F

Light rain. Partly sunny.

Feels Like: 42 °F
Forecast: 49 / 51 °F
Wind: 5 mph from North

Location: Falconara

Current Time: Nov 26, 2015 at 9:10:28 AM

Latest Report: Nov 26, 2015 at 7:50 AM

Visibility: 5 mi

Pressure: 29.56 "Hg

Humidity: 76%

Dew point: 37 °F

Location of AnconaLocation

Historic Weather in Ancona — Graph


Ancona temperature yesterday

Maximum temperature yesterday: 48 °F (at 11:50 AM)
Minimum temperature yesterday: 39 °F (at 6:50 AM)
Average temperature yesterday: 45 °F

Past Weeks' High & Low Weather Summary

High68 °F (Nov 20, 12:50 PM)100% (Nov 11, 11:02 AM)30.39 "Hg (Nov 11, 11:02 AM)
Low36 °F (Nov 23, 2:50 AM)46% (Nov 20, 1:50 PM)29.15 "Hg (Nov 21, 3:50 PM)
Average51 °F87%30.03 "Hg
* Reported Nov 11 7:50 AM — Nov 26 7:50 AM, Ancona, Weather by CustomWeather, © 2015

Note: Actual official high and low records may vary slightly from our data, if they occured in-between our weather recording intervals... More about our weather records


Ancona weather history for previous 24 hours

Time TempWeatherWind HumidityBarometerVisibility
7:50 AM
Thu, Nov 26
45 °FLight rain. Partly sunny.5 mph76%29.56 "Hg5 mi
6:50 AM41 °FPartly cloudy.7 mph81%29.53 "HgN/A
5:50 AM41 °FLight rain. Partly cloudy.12 mph81%29.53 "Hg5 mi
4:50 AM39 °FLight rain. Partly cloudy.8 mph87%29.56 "Hg5 mi
3:50 AM41 °FLight rain. Partly cloudy.6 mph81%29.56 "Hg5 mi
2:50 AM41 °FLight rain. Partly cloudy.8 mph87%29.59 "HgN/A
1:50 AM41 °FLight rain. Partly cloudy.5 mph93%29.59 "HgN/A
12:50 AM41 °FLight rain. Partly cloudy.6 mph93%29.59 "Hg5 mi
11:50 PM
Wed, Nov 25
43 °FPassing clouds.6 mph81%29.62 "HgN/A
10:50 PM45 °FPassing clouds.3 mph76%29.62 "HgN/A
9:50 PM45 °FPassing clouds.3 mph81%29.65 "HgN/A
8:50 PM43 °FPassing clouds.6 mph87%29.65 "HgN/A
7:50 PM43 °FPassing clouds.3 mph87%29.65 "HgN/A
6:50 PM45 °FPassing clouds.3 mph81%29.68 "HgN/A
5:50 PM45 °FPassing clouds.6 mph87%29.68 "HgN/A
4:50 PM46 °FPartly cloudy.5 mph82%29.71 "HgN/A
3:50 PM48 °FScattered clouds.9 mph76%29.74 "HgN/A
2:50 PM48 °FBroken clouds.7 mph82%29.74 "HgN/A
1:50 PM48 °FBroken clouds.6 mph76%29.77 "HgN/A
12:50 PM48 °FBroken clouds.2 mph76%29.80 "HgN/A
11:50 AM48 °FBroken clouds.6 mph76%29.83 "HgN/A
10:50 AM46 °FLight rain. Scattered clouds.7 mph82%29.86 "HgN/A
9:50 AM45 °FScattered clouds.5 mph81%29.89 "HgN/A
Weather by CustomWeather, © 2015

See weather overviewHow to use our weather pages